| time (UTC) | temp C | wind direction | speed KPH | gust KPH | rain 1hr cm | rain 24hr cm | rain mn cm | humidity % | barometer mb |
| 20260507051049 | 5 | 158 | 4.8 | 8.0 | 0.00 | 0.00 | 0.00 | 64 | 1015.9 |
| 20260507045050 | 4 | 183 | 6.4 | 8.0 | 0.00 | 0.00 | 0.00 | 66 | 1016.0 |
| 20260507042721 | 3 | 174 | 6.4 | 8.0 | 0.00 | 0.00 | 0.00 | 73 | 1015.9 |
| 20260507040721 | 3 | 171 | 6.4 | 9.7 | 0.00 | 0.00 | 0.00 | 75 | 1016.0 |
| 20260507034721 | 2 | 167 | 3.2 | 4.8 | 0.00 | 0.00 | 0.00 | 75 | 1016.0 |
| 20260507032721 | 2 | 160 | 3.2 | 6.4 | 0.00 | 0.00 | 0.00 | 72 | 1015.9 |
| 20260507030721 | 1 | 164 | 1.6 | 3.2 | 0.00 | 0.00 | 0.00 | 79 | 1015.7 |
| 20260507023051 | 0 | 17 | 3.2 | 3.2 | 0.00 | 0.00 | 0.00 | 92 | 1015.5 |
| 20260507021050 | 0 | 307 | 1.6 | 4.8 | 0.00 | 0.00 | 0.00 | 91 | 1015.4 |
| 20260507015050 | 0 | 127 | 1.6 | 3.2 | 0.00 | 0.00 | 0.00 | 88 | 1015.2 |
| 20260507013049 | 0 | 90 | 1.6 | 3.2 | 0.00 | 0.00 | 0.00 | 89 | 1015.1 |
| 20260507010720 | 0 | 332 | 3.2 | 4.8 | 0.00 | 0.00 | 0.00 | 88 | 1015.0 |
| 20260507004720 | 0 | 340 | 1.6 | 3.2 | 0.00 | 0.00 | 0.00 | 89 | 1014.9 |
| 20260507002720 | 0 | 338 | 1.6 | 4.8 | 0.00 | 0.00 | 0.00 | 87 | 1014.9 |
| 20260507000721 | 0 | 326 | 3.2 | 4.8 | 0.00 | 0.00 | 0.00 | 87 | 1014.8 |
| 20260506234720 | 0 | 327 | 1.6 | 4.8 | 0.00 | 0.00 | 0.00 | 89 | 1014.7 |
| 20260506232720 | 0 | 329 | 1.6 | 3.2 | 0.00 | 0.00 | 0.00 | 83 | 1014.5 |
| 20260506230720 | 0 | 54 | 1.6 | 3.2 | 0.00 | 0.00 | 0.00 | 83 | 1014.4 |
| 20260506223049 | 1 | 126 | 1.6 | 3.2 | 0.00 | 0.00 | 0.00 | 84 | 1014.1 |
| 20260506220720 | 1 | 111 | 1.6 | 1.6 | 0.00 | 0.00 | 0.00 | 86 | 1013.9 |
| 20260506214720 | 1 | 75 | 1.6 | 3.2 | 0.00 | 0.00 | 0.00 | 79 | 1013.7 |
| 20260506205048 | 2 | 147 | 1.6 | 3.2 | 0.00 | 0.00 | 0.00 | 76 | 1013.3 |
| 20260506202719 | 2 | 154 | 3.2 | 6.4 | 0.00 | 0.00 | 0.00 | 76 | 1013.2 |
| 20260506200719 | 2 | 172 | 1.6 | 3.2 | 0.00 | 0.00 | 0.00 | 74 | 1013.1 |
| 20260506194719 | 3 | 167 | 1.6 | 3.2 | 0.00 | 0.00 | 0.00 | 71 | 1012.8 |
| 20260506191048 | 4 | 224 | 1.6 | 4.8 | 0.00 | 0.00 | 0.00 | 63 | 1012.5 |
| 20260506182719 | 6 | 313 | 8.0 | 12.9 | 0.00 | 0.00 | 0.00 | 58 | 1012.2 |
| 20260506180719 | 6 | 326 | 9.7 | 19.3 | 0.00 | 0.00 | 0.00 | 56 | 1012.0 |
| 20260506173047 | 7 | 289 | 4.8 | 8.0 | 0.00 | 0.00 | 0.00 | 44 | 1011.5 |
| 20260506171048 | 8 | 299 | 8.0 | 12.9 | 0.00 | 0.00 | 0.00 | 42 | 1011.4 |
| 20260506165047 | 8 | 309 | 9.7 | 17.7 | 0.00 | 0.00 | 0.00 | 41 | 1011.3 |
| 20260506163048 | 8 | 303 | 9.7 | 20.9 | 0.00 | 0.00 | 0.00 | 41 | 1011.0 |
| 20260506154719 | 8 | 321 | 14.5 | 27.4 | 0.00 | 0.00 | 0.00 | 40 | 1010.8 |
| 20260506150718 | 8 | 322 | 12.9 | 24.1 | 0.00 | 0.00 | 0.00 | 42 | 1010.6 |
| 20260506144718 | 8 | 328 | 16.1 | 27.4 | 0.00 | 0.00 | 0.00 | 40 | 1010.4 |
| 20260506142718 | 8 | 317 | 11.3 | 20.9 | 0.00 | 0.00 | 0.00 | 45 | 1010.4 |
| 20260506134718 | 8 | 305 | 14.5 | 27.4 | 0.00 | 0.00 | 0.00 | 35 | 1009.8 |
| 20260506132718 | 8 | 291 | 17.7 | 33.8 | 0.00 | 0.00 | 0.00 | 33 | 1009.6 |
| 20260506125046 | 9 | 307 | 11.3 | 24.1 | 0.00 | 0.00 | 0.00 | 34 | 1009.3 |
| 20260506123046 | 7 | 285 | 22.5 | 41.8 | 0.00 | 0.00 | 0.00 | 39 | 1009.4 |
| 20260506121047 | 8 | 276 | 12.9 | 30.6 | 0.00 | 0.00 | 0.00 | 31 | 1009.1 |
| 20260506115047 | 7 | 284 | 17.7 | 38.6 | 0.00 | 0.00 | 0.00 | 35 | 1009.1 |
| 20260506114718 | 8 | 259 | 14.5 | 37.0 | 0.00 | 0.00 | 0.00 | 32 | 1008.8 |
| 20260506112718 | 9 | 291 | 14.5 | 25.7 | 0.00 | 0.00 | 0.00 | 35 | 1008.7 |
| 20260506110718 | 8 | 272 | 19.3 | 33.8 | 0.00 | 0.00 | 0.00 | 32 | 1008.6 |
| 20260506104718 | 10 | 240 | 20.9 | 38.6 | 0.00 | 0.00 | 0.00 | 35 | 1008.2 |
| 20260506102718 | 8 | 287 | 17.7 | 30.6 | 0.00 | 0.00 | 0.00 | 36 | 1008.3 |
| 20260506100718 | 8 | 279 | 12.9 | 24.1 | 0.00 | 0.00 | 0.00 | 37 | 1007.9 |
| 20260506094718 | 7 | 279 | 12.9 | 22.5 | 0.00 | 0.00 | 0.00 | 40 | 1007.8 |
| 20260506092717 | 7 | 276 | 14.5 | 27.4 | 0.00 | 0.00 | 0.00 | 38 | 1007.6 |
| 20260506090717 | 7 | 260 | 16.1 | 29.0 | 0.00 | 0.00 | 0.00 | 41 | 1007.5 |
| 20260506084717 | 7 | 266 | 17.7 | 33.8 | 0.00 | 0.00 | 0.00 | 39 | 1007.2 |
| 20260506082717 | 7 | 262 | 19.3 | 41.8 | 0.00 | 0.00 | 0.00 | 40 | 1007.1 |
| 20260506080717 | 7 | 248 | 17.7 | 33.8 | 0.00 | 0.00 | 0.00 | 43 | 1006.8 |
| 20260506072717 | 6 | 272 | 17.7 | 33.8 | 0.00 | 0.08 | 0.00 | 46 | 1006.5 |
| 20260506070717 | 6 | 258 | 17.7 | 32.2 | 0.00 | 0.08 | 0.00 | 47 | 1006.4 |
| 20260506060717 | 5 | 254 | 17.7 | 30.6 | 0.00 | 0.10 | 0.00 | 51 | 1005.8 |